Time,TemperatureF,DewpointF,PressureIn,WindDirection,WindDirectionDegrees,WindSpeedMPH,WindSpeedGustMPH,Humidity,HourlyPrecipIn,Conditions,Clouds,dailyrainin,SoftwareType,DateUTC
2013-02-12 00:00:00,22.5,19.2,30.07,SW,214,0.0,4.0,87,0.00,,,0.00,WUHU216DAVISVP2,2013-02-12 06:00:00,
2013-02-12 00:05:00,22.4,19.3,30.07,SW,219,0.0,3.0,88,0.00,,,0.00,WUHU216DAVISVP2,2013-02-12 06:05:00,
2013-02-12 00:10:00,22.2,19.1,30.07,WSW,238,0.0,3.0,88,0.00,,,0.00,WUHU216DAVISVP2,2013-02-12 06:10:00,
2013-02-12 00:15:00,22.0,18.9,30.06,SW,226,2.0,3.0,88,0.00,,,0.00,WUHU216DAVISVP2,2013-02-12 06:15:00,
2013-02-12 00:20:00,21.9,19.1,30.06,SW,217,0.0,3.0,89,0.00,,,0.00,WUHU216DAVISVP2,2013-02-12 06:20:00,
2013-02-12 00:25:00,21.7,18.9,30.06,SSW,208,0.0,3.0,89,0.00,,,0.00,WUHU216DAVISVP2,2013-02-12 06:25:00,
2013-02-12 00:30:00,21.5,18.7,30.06,SW,218,0.0,3.0,89,0.00,,,0.00,WUHU216DAVISVP2,2013-02-12 06:30:00,
2013-02-12 00:35:00,21.4,18.6,30.06,SW,233,0.0,2.0,89,0.00,,,0.00,WUHU216DAVISVP2,2013-02-12 06:35:00,
2013-02-12 00:40:00,21.4,18.6,30.06,NNE,15,0.0,4.0,89,0.00,,,0.00,WUHU216DAVISVP2,2013-02-12 06:40:00,
2013-02-12 00:45:00,21.5,18.5,30.06,SW,219,0.0,4.0,88,0.00,,,0.00,WUHU216DAVISVP2,2013-02-12 06:45:00,
2013-02-12 00:50:00,21.6,18.3,30.06,SW,233,0.0,4.0,87,0.00,,,0.00,WUHU216DAVISVP2,2013-02-12 06:50:00,
2013-02-12 00:55:00,21.5,18.2,30.06,SE,128,0.0,4.0,87,0.00,,,0.00,WUHU216DAVISVP2,2013-02-12 06:55:00,
2013-02-12 00:58:00,21.4,18.1,30.06,SSW,206,0.0,3.0,87,0.00,,,0.00,WUHU216DAVISVP2,2013-02-12 06:58:00,
2013-02-12 00:59:00,21.4,18.1,30.06,South,188,0.0,3.0,87,0.00,,,0.00,WUHU216DAVISVP2,2013-02-12 06:59:00,
2013-02-12 01:00:00,21.3,18.3,30.06,SW,229,1.0,3.0,88,0.00,,,0.00,WUHU216DAVISVP2,2013-02-12 07:00:00,
2013-02-12 01:02:00,21.3,18.0,30.06,SW,217,0.0,3.0,87,0.00,,,0.00,WUHU216DAVISVP2,2013-02-12 07:02:00,
2013-02-12 01:03:00,21.2,17.9,30.06,WSW,242,0.0,3.0,87,0.00,,,0.00,WUHU216DAVISVP2,2013-02-12 07:03:00,
2013-02-12 01:04:00,21.3,18.0,30.06,SW,219,0.0,3.0,87,0.00,,,0.00,WUHU216DAVISVP2,2013-02-12 07:04:00,
2013-02-12 01:05:00,21.2,17.9,30.06,SW,219,0.0,3.0,87,0.00,,,0.00,WUHU216DAVISVP2,2013-02-12 07:05:00,
2013-02-12 01:07:00,21.2,17.9,30.06,SW,223,0.0,2.0,87,0.00,,,0.00,WUHU216DAVISVP2,2013-02-12 07:07:00,
2013-02-12 01:08:00,21.2,18.2,30.06,SW,223,0.0,2.0,88,0.00,,,0.00,WUHU216DAVISVP2,2013-02-12 07:08:00,
2013-02-12 01:09:00,21.1,18.1,30.06,SW,231,3.0,4.0,88,0.00,,,0.00,WUHU216DAVISVP2,2013-02-12 07:09:00,
2013-02-12 01:10:00,21.1,18.1,30.06,SW,236,0.0,4.0,88,0.00,,,0.00,WUHU216DAVISVP2,2013-02-12 07:10:00,
2013-02-12 01:12:00,21.1,18.1,30.05,SW,219,0.0,4.0,88,0.00,,,0.00,WUHU216DAVISVP2,2013-02-12 07:12:00,
2013-02-12 01:13:00,21.0,18.0,30.05,SW,230,0.0,4.0,88,0.00,,,0.00,WUHU216DAVISVP2,2013-02-12 07:13:00,
2013-02-12 01:14:00,21.0,18.0,30.05,SW,222,1.0,6.0,88,0.00,,,0.00,WUHU216DAVISVP2,2013-02-12 07:14:00,
2013-02-12 01:15:00,21.0,18.0,30.05,SW,232,1.0,6.0,88,0.00,,,0.00,WUHU216DAVISVP2,2013-02-12 07:15:00,
2013-02-12 01:17:00,20.9,17.9,30.05,SSW,210,0.0,6.0,88,0.00,,,0.00,WUHU216DAVISVP2,2013-02-12 07:17:00,
2013-02-12 01:18:00,20.9,17.9,30.05,SW,229,0.0,6.0,88,0.00,,,0.00,WUHU216DAVISVP2,2013-02-12 07:18:00,
2013-02-12 01:19:00,20.9,17.9,30.05,South,186,0.0,6.0,88,0.00,,,0.00,WUHU216DAVISVP2,2013-02-12 07:19:00,
2013-02-12 01:20:00,20.9,17.9,30.05,West,264,1.0,6.0,88,0.00,,,0.00,WUHU216DAVISVP2,2013-02-12 07:20:00,
2013-02-12 01:22:00,20.8,17.8,30.05,SW,230,1.0,6.0,88,0.00,,,0.00,WUHU216DAVISVP2,2013-02-12 07:22:00,
2013-02-12 01:23:00,20.8,17.8,30.05,SW,224,1.0,6.0,88,0.00,,,0.00,WUHU216DAVISVP2,2013-02-12 07:23:00,
2013-02-12 01:24:00,20.8,17.8,30.05,SSW,196,0.0,6.0,88,0.00,,,0.00,WUHU216DAVISVP2,2013-02-12 07:24:00,
2013-02-12 01:25:00,20.8,17.8,30.05,SSE,150,0.0,6.0,88,0.00,,,0.00,WUHU216DAVISVP2,2013-02-12 07:25:00,
2013-02-12 01:27:00,20.7,17.7,30.05,SW,221,0.0,6.0,88,0.00,,,0.00,WUHU216DAVISVP2,2013-02-12 07:27:00,
2013-02-12 01:28:00,20.7,17.7,30.05,SW,221,0.0,6.0,88,0.00,,,0.00,WUHU216DAVISVP2,2013-02-12 07:28:00,
2013-02-12 01:29:00,20.7,17.7,30.05,SSW,211,0.0,6.0,88,0.00,,,0.00,WUHU216DAVISVP2,2013-02-12 07:29:00,
2013-02-12 01:30:00,20.7,17.7,30.05,SSW,211,0.0,6.0,88,0.00,,,0.00,WUHU216DAVISVP2,2013-02-12 07:30:00,
2013-02-12 01:31:00,20.6,17.6,30.05,SSW,212,0.0,6.0,88,0.00,,,0.00,WUHU216DAVISVP2,2013-02-12 07:31:00,
2013-02-12 01:33:00,20.7,17.7,30.05,SSW,200,0.0,4.0,88,0.00,,,0.00,WUHU216DAVISVP2,2013-02-12 07:33:00,
2013-02-12 01:34:00,20.6,17.6,30.05,SSW,199,0.0,4.0,88,0.00,,,0.00,WUHU216DAVISVP2,2013-02-12 07:34:00,
2013-02-12 01:35:00,20.6,17.6,30.04,SSE,163,1.0,4.0,88,0.00,,,0.00,WUHU216DAVISVP2,2013-02-12 07:35:00,
2013-02-12 01:36:00,20.6,17.6,30.04,SW,220,0.0,4.0,88,0.00,,,0.00,WUHU216DAVISVP2,2013-02-12 07:36:00,
2013-02-12 01:38:00,20.6,17.6,30.04,SSW,210,0.0,4.0,88,0.00,,,0.00,WUHU216DAVISVP2,2013-02-12 07:38:00,
2013-02-12 01:39:00,20.6,17.6,30.04,SSW,210,0.0,4.0,88,0.00,,,0.00,WUHU216DAVISVP2,2013-02-12 07:39:00,
2013-02-12 01:40:00,20.6,17.6,30.04,SSW,211,0.0,3.0,88,0.00,,,0.00,WUHU216DAVISVP2,2013-02-12 07:40:00,
2013-02-12 01:41:00,20.6,17.6,30.04,SSW,210,0.0,3.0,88,0.00,,,0.00,WUHU216DAVISVP2,2013-02-12 07:41:00,
2013-02-12 01:43:00,20.6,17.6,30.04,South,180,0.0,3.0,88,0.00,,,0.00,WUHU216DAVISVP2,2013-02-12 07:43:00,
2013-02-12 01:44:00,20.5,17.5,30.04,South,175,0.0,3.0,88,0.00,,,0.00,WUHU216DAVISVP2,2013-02-12 07:44:00,
2013-02-12 01:45:00,20.5,17.5,30.04,South,187,0.0,3.0,88,0.00,,,0.00,WUHU216DAVISVP2,2013-02-12 07:45:00,
2013-02-12 01:46:00,20.5,17.5,30.04,South,187,0.0,3.0,88,0.00,,,0.00,WUHU216DAVISVP2,2013-02-12 07:46:00,
2013-02-12 01:48:00,20.4,17.4,30.04,South,187,0.0,3.0,88,0.00,,,0.00,WUHU216DAVISVP2,2013-02-12 07:48:00,
2013-02-12 01:49:00,20.4,17.4,30.04,South,187,0.0,2.0,88,0.00,,,0.00,WUHU216DAVISVP2,2013-02-12 07:49:00,
2013-02-12 01:50:00,20.4,17.4,30.04,WSW,241,1.0,2.0,88,0.00,,,0.00,WUHU216DAVISVP2,2013-02-12 07:50:00,
2013-02-12 01:51:00,20.4,17.4,30.04,WSW,245,1.0,2.0,88,0.00,,,0.00,WUHU216DAVISVP2,2013-02-12 07:51:00,
2013-02-12 01:53:00,20.4,17.6,30.04,SW,230,0.0,2.0,89,0.00,,,0.00,WUHU216DAVISVP2,2013-02-12 07:53:00,
2013-02-12 01:54:00,20.4,17.7,30.04,SW,230,0.0,1.0,89,0.00,,,0.00,WUHU216DAVISVP2,2013-02-12 07:54:00,
2013-02-12 01:55:00,20.3,17.5,30.04,SW,230,0.0,1.0,89,0.00,,,0.00,WUHU216DAVISVP2,2013-02-12 07:55:00,
2013-02-12 01:56:00,20.3,17.5,30.04,South,176,0.0,1.0,89,0.00,,,0.00,WUHU216DAVISVP2,2013-02-12 07:56:00,
2013-02-12 01:58:00,20.2,17.5,30.04,SSE,148,0.0,1.0,89,0.00,,,0.00,WUHU216DAVISVP2,2013-02-12 07:58:00,
2013-02-12 01:59:00,20.2,17.5,30.04,SSE,148,0.0,1.0,89,0.00,,,0.00,WUHU216DAVISVP2,2013-02-12 07:59:00,
2013-02-12 02:00:00,20.2,17.4,30.04,SE,143,0.0,1.0,89,0.00,,,0.00,WUHU216DAVISVP2,2013-02-12 08:00:00,
2013-02-12 02:01:00,20.2,17.4,30.04,SE,141,0.0,1.0,89,0.00,,,0.00,WUHU216DAVISVP2,2013-02-12 08:01:00,
2013-02-12 02:03:00,20.2,17.4,30.04,SE,142,0.0,1.0,89,0.00,,,0.00,WUHU216DAVISVP2,2013-02-12 08:03:00,
2013-02-12 02:04:00,20.1,17.3,30.04,SE,141,0.0,1.0,89,0.00,,,0.00,WUHU216DAVISVP2,2013-02-12 08:04:00,
2013-02-12 02:05:00,20.1,17.3,30.04,SE,141,0.0,1.0,89,0.00,,,0.00,WUHU216DAVISVP2,2013-02-12 08:05:00,
2013-02-12 02:06:00,20.0,17.2,30.03,SE,142,0.0,1.0,89,0.00,,,0.00,WUHU216DAVISVP2,2013-02-12 08:06:00,
2013-02-12 02:08:00,20.0,17.2,30.04,SE,144,0.0,1.0,89,0.00,,,0.00,WUHU216DAVISVP2,2013-02-12 08:08:00,
2013-02-12 02:09:00,20.0,17.2,30.04,SE,131,0.0,1.0,89,0.00,,,0.00,WUHU216DAVISVP2,2013-02-12 08:09:00,
2013-02-12 02:10:00,19.9,17.1,30.04,SE,146,0.0,1.0,89,0.00,,,0.00,WUHU216DAVISVP2,2013-02-12 08:10:00,
2013-02-12 02:11:00,19.9,17.1,30.03,SSE,151,0.0,1.0,89,0.00,,,0.00,WUHU216DAVISVP2,2013-02-12 08:11:00,
2013-02-12 02:13:00,19.8,17.0,30.04,SSE,153,0.0,1.0,89,0.00,,,0.00,WUHU216DAVISVP2,2013-02-12 08:13:00,
2013-02-12 02:14:00,19.8,17.0,30.04,SSE,155,0.0,1.0,89,0.00,,,0.00,WUHU216DAVISVP2,2013-02-12 08:14:00,
2013-02-12 02:15:00,19.8,17.0,30.03,SSE,154,0.0,1.0,89,0.00,,,0.00,WUHU216DAVISVP2,2013-02-12 08:15:00,
2013-02-12 02:16:00,19.7,17.0,30.03,SSE,155,0.0,1.0,89,0.00,,,0.00,WUHU216DAVISVP2,2013-02-12 08:16:00,
2013-02-12 02:18:00,19.7,17.0,30.04,SSE,153,0.0,1.0,89,0.00,,,0.00,WUHU216DAVISVP2,2013-02-12 08:18:00,
2013-02-12 02:19:00,19.6,16.9,30.03,SSE,154,0.0,0.0,89,0.00,,,0.00,WUHU216DAVISVP2,2013-02-12 08:19:00,
2013-02-12 02:20:00,19.6,16.9,30.03,SSE,165,0.0,1.0,89,0.00,,,0.00,WUHU216DAVISVP2,2013-02-12 08:20:00,
2013-02-12 02:21:00,19.6,16.9,30.03,SSE,164,0.0,1.0,89,0.00,,,0.00,WUHU216DAVISVP2,2013-02-12 08:21:00,
2013-02-12 02:22:00,19.5,16.8,30.03,SE,141,0.0,1.0,89,0.00,,,0.00,WUHU216DAVISVP2,2013-02-12 08:22:00,
2013-02-12 02:24:00,19.5,16.8,30.03,SSE,168,0.0,1.0,89,0.00,,,0.00,WUHU216DAVISVP2,2013-02-12 08:24:00,
2013-02-12 02:25:00,19.5,16.7,30.03,SSE,151,0.0,1.0,89,0.00,,,0.00,WUHU216DAVISVP2,2013-02-12 08:25:00,
2013-02-12 02:26:00,19.4,16.9,30.03,SE,134,0.0,1.0,90,0.00,,,0.00,WUHU216DAVISVP2,2013-02-12 08:26:00,
2013-02-12 02:27:00,19.4,16.9,30.03,SE,124,1.0,1.0,90,0.00,,,0.00,WUHU216DAVISVP2,2013-02-12 08:27:00,
2013-02-12 02:29:00,19.4,16.9,30.03,SSE,151,0.0,1.0,90,0.00,,,0.00,WUHU216DAVISVP2,2013-02-12 08:29:00,
2013-02-12 02:30:00,19.4,16.9,30.03,South,174,0.0,1.0,90,0.00,,,0.00,WUHU216DAVISVP2,2013-02-12 08:30:00,
2013-02-12 02:31:00,19.4,16.9,30.03,SSE,167,0.0,1.0,90,0.00,,,0.00,WUHU216DAVISVP2,2013-02-12 08:31:00,
2013-02-12 02:32:00,19.4,16.9,30.03,SE,146,0.0,1.0,90,0.00,,,0.00,WUHU216DAVISVP2,2013-02-12 08:32:00,
2013-02-12 02:34:00,19.4,16.9,30.03,SE,136,0.0,1.0,90,0.00,,,0.00,WUHU216DAVISVP2,2013-02-12 08:34:00,
2013-02-12 02:35:00,19.4,16.9,30.03,SSE,156,0.0,1.0,90,0.00,,,0.00,WUHU216DAVISVP2,2013-02-12 08:35:00,
2013-02-12 02:36:00,19.4,16.9,30.03,SE,131,1.0,1.0,90,0.00,,,0.00,WUHU216DAVISVP2,2013-02-12 08:36:00,
2013-02-12 02:37:00,19.4,16.9,30.03,SE,134,0.0,1.0,90,0.00,,,0.00,WUHU216DAVISVP2,2013-02-12 08:37:00,
2013-02-12 02:39:00,19.4,16.9,30.03,SE,134,0.0,1.0,90,0.00,,,0.00,WUHU216DAVISVP2,2013-02-12 08:39:00,
2013-02-12 02:40:00,19.3,16.8,30.03,SSE,150,0.0,1.0,90,0.00,,,0.00,WUHU216DAVISVP2,2013-02-12 08:40:00,
2013-02-12 02:41:00,19.3,16.8,30.03,SSE,150,0.0,1.0,90,0.00,,,0.00,WUHU216DAVISVP2,2013-02-12 08:41:00,
2013-02-12 02:42:00,19.3,16.8,30.03,SSE,164,0.0,1.0,90,0.00,,,0.00,WUHU216DAVISVP2,2013-02-12 08:42:00,
2013-02-12 02:44:00,19.3,16.8,30.03,SE,129,0.0,1.0,90,0.00,,,0.00,WUHU216DAVISVP2,2013-02-12 08:44:00,
2013-02-12 02:45:00,19.3,16.8,30.03,SE,136,0.0,1.0,90,0.00,,,0.00,WUHU216DAVISVP2,2013-02-12 08:45:00,
2013-02-12 02:46:00,19.3,16.8,30.03,SSE,164,0.0,1.0,90,0.00,,,0.00,WUHU216DAVISVP2,2013-02-12 08:46:00,
2013-02-12 02:47:00,19.3,16.8,30.02,SSE,152,0.0,1.0,90,0.00,,,0.00,WUHU216DAVISVP2,2013-02-12 08:47:00,
2013-02-12 02:49:00,19.3,16.8,30.02,SSE,150,0.0,1.0,90,0.00,,,0.00,WUHU216DAVISVP2,2013-02-12 08:49:00,
2013-02-12 02:50:00,19.3,16.8,30.02,South,169,0.0,1.0,90,0.00,,,0.00,WUHU216DAVISVP2,2013-02-12 08:50:00,
2013-02-12 02:51:00,19.3,16.8,30.02,SSE,162,0.0,1.0,90,0.00,,,0.00,WUHU216DAVISVP2,2013-02-12 08:51:00,
2013-02-12 02:52:00,19.3,16.8,30.02,SSE,159,0.0,1.0,90,0.00,,,0.00,WUHU216DAVISVP2,2013-02-12 08:52:00,
2013-02-12 02:54:00,19.3,16.8,30.02,SSE,158,0.0,1.0,90,0.00,,,0.00,WUHU216DAVISVP2,2013-02-12 08:54:00,
2013-02-12 02:55:00,19.3,16.8,30.02,SSE,166,0.0,1.0,90,0.00,,,0.00,WUHU216DAVISVP2,2013-02-12 08:55:00,
2013-02-12 02:56:00,19.3,16.8,30.02,SSE,147,0.0,1.0,90,0.00,,,0.00,WUHU216DAVISVP2,2013-02-12 08:56:00,
2013-02-12 02:57:00,19.3,16.8,30.02,SSE,150,0.0,1.0,90,0.00,,,0.00,WUHU216DAVISVP2,2013-02-12 08:57:00,
2013-02-12 02:59:00,19.3,16.8,30.02,SSE,167,0.0,1.0,90,0.00,,,0.00,WUHU216DAVISVP2,2013-02-12 08:59:00,
2013-02-12 03:00:00,19.2,16.7,30.02,SE,138,1.0,1.0,90,0.00,,,0.00,WUHU216DAVISVP2,2013-02-12 09:00:00,
2013-02-12 03:01:00,19.3,16.8,30.02,SW,217,0.0,1.0,90,0.00,,,0.00,WUHU216DAVISVP2,2013-02-12 09:01:00,
2013-02-12 03:02:00,19.2,16.7,30.02,SE,127,0.0,1.0,90,0.00,,,0.00,WUHU216DAVISVP2,2013-02-12 09:02:00,
2013-02-12 03:04:00,19.2,16.7,30.02,SSW,204,0.0,1.0,90,0.00,,,0.00,WUHU216DAVISVP2,2013-02-12 09:04:00,
2013-02-12 03:05:00,19.2,16.7,30.02,SE,124,0.0,1.0,90,0.00,,,0.00,WUHU216DAVISVP2,2013-02-12 09:05:00,
2013-02-12 03:06:00,19.3,16.8,30.02,ESE,123,0.0,1.0,90,0.00,,,0.00,WUHU216DAVISVP2,2013-02-12 09:06:00,
2013-02-12 03:07:00,19.3,16.8,30.02,ESE,120,0.0,1.0,90,0.00,,,0.00,WUHU216DAVISVP2,2013-02-12 09:07:00,
2013-02-12 03:09:00,19.2,16.7,30.02,SW,217,0.0,1.0,90,0.00,,,0.00,WUHU216DAVISVP2,2013-02-12 09:09:00,
2013-02-12 03:10:00,19.3,16.8,30.01,SW,217,0.0,2.0,90,0.00,,,0.00,WUHU216DAVISVP2,2013-02-12 09:10:00,
2013-02-12 03:11:00,19.2,16.7,30.01,SW,221,0.0,2.0,90,0.00,,,0.00,WUHU216DAVISVP2,2013-02-12 09:11:00,
2013-02-12 03:12:00,19.3,16.8,30.01,SW,221,0.0,2.0,90,0.00,,,0.00,WUHU216DAVISVP2,2013-02-12 09:12:00,
2013-02-12 03:14:00,19.3,16.8,30.01,WSW,250,0.0,2.0,90,0.00,,,0.00,WUHU216DAVISVP2,2013-02-12 09:14:00,
2013-02-12 03:15:00,19.3,16.8,30.01,SSE,152,0.0,2.0,90,0.00,,,0.00,WUHU216DAVISVP2,2013-02-12 09:15:00,
2013-02-12 03:16:00,19.3,16.8,30.01,SW,219,0.0,2.0,90,0.00,,,0.00,WUHU216DAVISVP2,2013-02-12 09:16:00,
2013-02-12 03:17:00,19.3,16.8,30.01,SW,219,0.0,2.0,90,0.00,,,0.00,WUHU216DAVISVP2,2013-02-12 09:17:00,
2013-02-12 03:19:00,19.2,16.7,30.01,NW,311,0.0,2.0,90,0.00,,,0.00,WUHU216DAVISVP2,2013-02-12 09:19:00,
2013-02-12 03:20:00,19.2,16.7,30.01,SE,140,0.0,2.0,90,0.00,,,0.00,WUHU216DAVISVP2,2013-02-12 09:20:00,
2013-02-12 03:21:00,19.2,16.7,30.01,SE,138,0.0,2.0,90,0.00,,,0.00,WUHU216DAVISVP2,2013-02-12 09:21:00,
2013-02-12 03:22:00,19.2,16.7,30.01,WSW,250,0.0,2.0,90,0.00,,,0.00,WUHU216DAVISVP2,2013-02-12 09:22:00,
2013-02-12 03:23:00,19.2,16.7,30.01,SE,129,0.0,2.0,90,0.00,,,0.00,WUHU216DAVISVP2,2013-02-12 09:23:00,
2013-02-12 03:25:00,19.3,16.8,30.01,SE,134,0.0,2.0,90,0.00,,,0.00,WUHU216DAVISVP2,2013-02-12 09:25:00,
2013-02-12 03:26:00,19.2,16.7,30.01,SE,134,0.0,2.0,90,0.00,,,0.00,WUHU216DAVISVP2,2013-02-12 09:26:00,
2013-02-12 03:27:00,19.2,16.7,30.01,SE,125,0.0,2.0,90,0.00,,,0.00,WUHU216DAVISVP2,2013-02-12 09:27:00,
2013-02-12 03:28:00,19.2,16.7,30.01,SE,125,0.0,2.0,90,0.00,,,0.00,WUHU216DAVISVP2,2013-02-12 09:28:00,
2013-02-12 03:30:00,19.2,16.7,30.01,SSE,148,0.0,1.0,90,0.00,,,0.00,WUHU216DAVISVP2,2013-02-12 09:30:00,
2013-02-12 03:31:00,19.2,16.7,30.01,SSE,148,0.0,1.0,90,0.00,,,0.00,WUHU216DAVISVP2,2013-02-12 09:31:00,
2013-02-12 03:32:00,19.2,16.7,30.01,SE,143,0.0,0.0,90,0.00,,,0.00,WUHU216DAVISVP2,2013-02-12 09:32:00,
2013-02-12 03:33:00,19.2,16.7,30.00,SE,143,0.0,0.0,90,0.00,,,0.00,WUHU216DAVISVP2,2013-02-12 09:33:00,
2013-02-12 03:35:00,19.2,16.7,30.00,SE,142,0.0,0.0,90,0.00,,,0.00,WUHU216DAVISVP2,2013-02-12 09:35:00,
2013-02-12 03:36:00,19.2,16.7,30.00,SE,143,0.0,0.0,90,0.00,,,0.00,WUHU216DAVISVP2,2013-02-12 09:36:00,
2013-02-12 03:37:00,19.1,16.6,30.00,SE,143,0.0,0.0,90,0.00,,,0.00,WUHU216DAVISVP2,2013-02-12 09:37:00,
2013-02-12 03:38:00,19.1,16.6,30.00,SE,145,0.0,0.0,90,0.00,,,0.00,WUHU216DAVISVP2,2013-02-12 09:38:00,
2013-02-12 03:40:00,19.1,16.6,30.00,SE,145,0.0,0.0,90,0.00,,,0.00,WUHU216DAVISVP2,2013-02-12 09:40:00,
2013-02-12 03:41:00,19.1,16.6,30.00,SE,141,0.0,0.0,90,0.00,,,0.00,WUHU216DAVISVP2,2013-02-12 09:41:00,
2013-02-12 03:42:00,19.1,16.6,30.00,SE,141,0.0,0.0,90,0.00,,,0.00,WUHU216DAVISVP2,2013-02-12 09:42:00,
2013-02-12 03:43:00,19.0,16.5,30.00,SE,141,0.0,0.0,90,0.00,,,0.00,WUHU216DAVISVP2,2013-02-12 09:43:00,
2013-02-12 03:45:00,19.0,16.5,30.00,SE,141,0.0,0.0,90,0.00,,,0.00,WUHU216DAVISVP2,2013-02-12 09:45:00,
2013-02-12 03:46:00,19.0,16.5,30.00,SE,141,0.0,0.0,90,0.00,,,0.00,WUHU216DAVISVP2,2013-02-12 09:46:00,
2013-02-12 03:47:00,19.0,16.5,30.00,SE,141,0.0,0.0,90,0.00,,,0.00,WUHU216DAVISVP2,2013-02-12 09:47:00,
2013-02-12 03:48:00,19.0,16.5,30.00,SE,141,0.0,0.0,90,0.00,,,0.00,WUHU216DAVISVP2,2013-02-12 09:48:00,
2013-02-12 03:50:00,19.0,16.5,30.00,SE,141,0.0,0.0,90,0.00,,,0.00,WUHU216DAVISVP2,2013-02-12 09:50:00,
2013-02-12 03:51:00,19.0,16.5,30.00,SW,236,0.0,2.0,90,0.00,,,0.00,WUHU216DAVISVP2,2013-02-12 09:51:00,
2013-02-12 03:52:00,18.9,16.4,30.00,SW,236,0.0,2.0,90,0.00,,,0.00,WUHU216DAVISVP2,2013-02-12 09:52:00,
2013-02-12 03:53:00,18.9,16.4,30.00,SE,146,0.0,2.0,90,0.00,,,0.00,WUHU216DAVISVP2,2013-02-12 09:53:00,
2013-02-12 03:55:00,18.9,16.4,30.00,SE,134,0.0,2.0,90,0.00,,,0.00,WUHU216DAVISVP2,2013-02-12 09:55:00,
2013-02-12 03:56:00,18.9,16.5,29.99,SSE,148,0.0,2.0,90,0.00,,,0.00,WUHU216DAVISVP2,2013-02-12 09:56:00,
2013-02-12 03:57:00,18.9,16.4,30.00,SE,139,0.0,2.0,90,0.00,,,0.00,WUHU216DAVISVP2,2013-02-12 09:57:00,
2013-02-12 03:58:00,18.9,16.5,29.99,SSE,167,0.0,2.0,90,0.00,,,0.00,WUHU216DAVISVP2,2013-02-12 09:58:00,
2013-02-12 04:00:00,18.8,16.4,29.99,SSE,167,0.0,2.0,90,0.00,,,0.00,WUHU216DAVISVP2,2013-02-12 10:00:00,
2013-02-12 04:01:00,18.8,16.3,29.99,SSE,166,0.0,2.0,90,0.00,,,0.00,WUHU216DAVISVP2,2013-02-12 10:01:00,
2013-02-12 04:02:00,18.8,16.3,29.99,SSE,157,0.0,2.0,90,0.00,,,0.00,WUHU216DAVISVP2,2013-02-12 10:02:00,
2013-02-12 04:03:00,18.8,16.3,29.99,SSE,157,0.0,2.0,90,0.00,,,0.00,WUHU216DAVISVP2,2013-02-12 10:03:00,
2013-02-12 04:05:00,18.8,16.4,29.99,SSE,157,0.0,2.0,90,0.00,,,0.00,WUHU216DAVISVP2,2013-02-12 10:05:00,
2013-02-12 04:06:00,18.7,16.3,29.99,SSE,160,0.0,2.0,90,0.00,,,0.00,WUHU216DAVISVP2,2013-02-12 10:06:00,
2013-02-12 04:07:00,18.7,16.3,29.99,SSE,160,0.0,2.0,90,0.00,,,0.00,WUHU216DAVISVP2,2013-02-12 10:07:00,
2013-02-12 04:08:00,18.6,16.1,29.99,SSE,160,0.0,2.0,90,0.00,,,0.00,WUHU216DAVISVP2,2013-02-12 10:08:00,
2013-02-12 04:10:00,18.6,16.2,29.99,SE,135,0.0,2.0,90,0.00,,,0.00,WUHU216DAVISVP2,2013-02-12 10:10:00,
2013-02-12 04:11:00,18.6,16.2,29.99,SE,139,0.0,1.0,90,0.00,,,0.00,WUHU216DAVISVP2,2013-02-12 10:11:00,
2013-02-12 04:12:00,18.5,16.1,29.99,SSE,147,0.0,1.0,90,0.00,,,0.00,WUHU216DAVISVP2,2013-02-12 10:12:00,
2013-02-12 04:13:00,18.5,16.1,29.99,SSE,147,0.0,1.0,90,0.00,,,0.00,WUHU216DAVISVP2,2013-02-12 10:13:00,
2013-02-12 04:15:00,18.5,16.1,29.99,SSE,148,0.0,1.0,90,0.00,,,0.00,WUHU216DAVISVP2,2013-02-12 10:15:00,
2013-02-12 04:16:00,18.4,16.0,29.99,SSE,160,0.0,1.0,90,0.00,,,0.00,WUHU216DAVISVP2,2013-02-12 10:16:00,
2013-02-12 04:17:00,18.4,16.0,29.99,SSE,160,0.0,1.0,90,0.00,,,0.00,WUHU216DAVISVP2,2013-02-12 10:17:00,
2013-02-12 04:18:00,18.3,15.8,29.99,SSE,160,0.0,1.0,90,0.00,,,0.00,WUHU216DAVISVP2,2013-02-12 10:18:00,
2013-02-12 04:19:00,18.3,15.8,29.99,SSE,152,0.0,1.0,90,0.00,,,0.00,WUHU216DAVISVP2,2013-02-12 10:19:00,
2013-02-12 04:21:00,18.3,15.8,29.98,SSE,153,0.0,1.0,90,0.00,,,0.00,WUHU216DAVISVP2,2013-02-12 10:21:00,
2013-02-12 04:22:00,18.2,15.7,29.98,SE,143,0.0,1.0,90,0.00,,,0.00,WUHU216DAVISVP2,2013-02-12 10:22:00,
2013-02-12 04:23:00,18.2,15.8,29.98,SE,140,0.0,1.0,90,0.00,,,0.00,WUHU216DAVISVP2,2013-02-12 10:23:00,
2013-02-12 04:24:00,18.2,15.8,29.98,SE,141,0.0,1.0,90,0.00,,,0.00,WUHU216DAVISVP2,2013-02-12 10:24:00,
2013-02-12 04:26:00,18.1,15.7,29.98,SSE,157,0.0,1.0,90,0.00,,,0.00,WUHU216DAVISVP2,2013-02-12 10:26:00,
2013-02-12 04:27:00,18.1,15.6,29.98,SSE,157,0.0,1.0,90,0.00,,,0.00,WUHU216DAVISVP2,2013-02-12 10:27:00,
2013-02-12 04:28:00,18.1,15.6,29.98,SSE,157,0.0,1.0,90,0.00,,,0.00,WUHU216DAVISVP2,2013-02-12 10:28:00,
2013-02-12 04:29:00,18.0,15.5,29.98,SSE,159,0.0,1.0,90,0.00,,,0.00,WUHU216DAVISVP2,2013-02-12 10:29:00,
2013-02-12 04:31:00,18.0,15.8,29.98,SSE,159,0.0,1.0,91,0.00,,,0.00,WUHU216DAVISVP2,2013-02-12 10:31:00,
2013-02-12 04:32:00,18.0,15.8,29.98,SSE,159,0.0,1.0,91,0.00,,,0.00,WUHU216DAVISVP2,2013-02-12 10:32:00,
2013-02-12 04:33:00,17.9,15.7,29.98,SSE,149,0.0,1.0,91,0.00,,,0.00,WUHU216DAVISVP2,2013-02-12 10:33:00,
2013-02-12 04:34:00,17.9,15.7,29.98,SSE,157,0.0,1.0,91,0.00,,,0.00,WUHU216DAVISVP2,2013-02-12 10:34:00,
2013-02-12 04:36:00,17.9,15.7,29.98,SSE,157,0.0,1.0,91,0.00,,,0.00,WUHU216DAVISVP2,2013-02-12 10:36:00,
2013-02-12 04:37:00,17.9,15.7,29.98,SSE,156,0.0,1.0,91,0.00,,,0.00,WUHU216DAVISVP2,2013-02-12 10:37:00,
2013-02-12 04:38:00,17.9,15.7,29.98,SSE,157,0.0,1.0,91,0.00,,,0.00,WUHU216DAVISVP2,2013-02-12 10:38:00,
2013-02-12 04:39:00,17.9,15.7,29.97,SSE,154,0.0,1.0,91,0.00,,,0.00,WUHU216DAVISVP2,2013-02-12 10:39:00,
2013-02-12 04:41:00,17.9,15.7,29.97,SSE,154,0.0,1.0,91,0.00,,,0.00,WUHU216DAVISVP2,2013-02-12 10:41:00,
2013-02-12 04:42:00,17.9,15.7,29.97,SE,133,0.0,1.0,91,0.00,,,0.00,WUHU216DAVISVP2,2013-02-12 10:42:00,
2013-02-12 04:43:00,17.9,15.7,29.97,SE,134,0.0,1.0,91,0.00,,,0.00,WUHU216DAVISVP2,2013-02-12 10:43:00,
2013-02-12 04:44:00,17.9,15.7,29.97,South,169,0.0,1.0,91,0.00,,,0.00,WUHU216DAVISVP2,2013-02-12 10:44:00,
2013-02-12 04:46:00,17.8,15.6,29.97,SSE,167,0.0,1.0,91,0.00,,,0.00,WUHU216DAVISVP2,2013-02-12 10:46:00,
2013-02-12 04:47:00,17.8,15.6,29.97,SSE,168,0.0,1.0,91,0.00,,,0.00,WUHU216DAVISVP2,2013-02-12 10:47:00,
2013-02-12 04:48:00,17.8,15.6,29.97,SSE,155,0.0,1.0,91,0.00,,,0.00,WUHU216DAVISVP2,2013-02-12 10:48:00,
2013-02-12 04:49:00,17.8,15.6,29.97,SSE,156,0.0,1.0,91,0.00,,,0.00,WUHU216DAVISVP2,2013-02-12 10:49:00,
2013-02-12 04:51:00,17.8,15.6,29.97,SSE,153,0.0,1.0,91,0.00,,,0.00,WUHU216DAVISVP2,2013-02-12 10:51:00,
2013-02-12 04:52:00,17.8,15.6,29.97,SSE,167,0.0,1.0,91,0.00,,,0.00,WUHU216DAVISVP2,2013-02-12 10:52:00,
2013-02-12 04:53:00,17.8,15.6,29.97,SSE,152,0.0,0.0,91,0.00,,,0.00,WUHU216DAVISVP2,2013-02-12 10:53:00,
2013-02-12 04:54:00,17.7,15.5,29.97,SSE,158,0.0,0.0,91,0.00,,,0.00,WUHU216DAVISVP2,2013-02-12 10:54:00,
2013-02-12 04:56:00,17.7,15.5,29.97,SSE,158,0.0,1.0,91,0.00,,,0.00,WUHU216DAVISVP2,2013-02-12 10:56:00,
2013-02-12 04:57:00,17.7,15.5,29.97,SSE,160,0.0,1.0,91,0.00,,,0.00,WUHU216DAVISVP2,2013-02-12 10:57:00,
2013-02-12 04:58:00,17.7,15.5,29.97,SSE,148,0.0,1.0,91,0.00,,,0.00,WUHU216DAVISVP2,2013-02-12 10:58:00,
2013-02-12 04:59:00,17.7,15.5,29.97,SSE,158,0.0,1.0,91,0.00,,,0.00,WUHU216DAVISVP2,2013-02-12 10:59:00,
2013-02-12 05:01:00,17.6,15.1,29.97,SSE,155,0.0,1.0,90,0.00,,,0.00,WUHU216DAVISVP2,2013-02-12 11:01:00,
2013-02-12 05:02:00,17.6,15.4,29.96,SSE,168,0.0,1.0,91,0.00,,,0.00,WUHU216DAVISVP2,2013-02-12 11:02:00,
2013-02-12 05:03:00,17.6,15.4,29.97,SSW,193,0.0,1.0,91,0.00,,,0.00,WUHU216DAVISVP2,2013-02-12 11:03:00,
2013-02-12 05:04:00,17.6,15.4,29.96,SSE,161,0.0,1.0,91,0.00,,,0.00,WUHU216DAVISVP2,2013-02-12 11:04:00,
2013-02-12 05:06:00,17.5,15.3,29.96,South,170,0.0,1.0,91,0.00,,,0.00,WUHU216DAVISVP2,2013-02-12 11:06:00,
2013-02-12 05:07:00,17.6,15.4,29.96,SSE,149,0.0,1.0,91,0.00,,,0.00,WUHU216DAVISVP2,2013-02-12 11:07:00,
2013-02-12 05:08:00,17.5,15.3,29.96,SSE,164,0.0,1.0,91,0.00,,,0.00,WUHU216DAVISVP2,2013-02-12 11:08:00,
2013-02-12 05:09:00,17.6,15.4,29.96,SSW,201,0.0,1.0,91,0.00,,,0.00,WUHU216DAVISVP2,2013-02-12 11:09:00,
2013-02-12 05:11:00,17.6,15.4,29.96,SE,145,0.0,1.0,91,0.00,,,0.00,WUHU216DAVISVP2,2013-02-12 11:11:00,
2013-02-12 05:12:00,17.6,15.4,29.96,SSE,168,0.0,1.0,91,0.00,,,0.00,WUHU216DAVISVP2,2013-02-12 11:12:00,
2013-02-12 05:13:00,17.6,15.4,29.96,South,169,0.0,1.0,91,0.00,,,0.00,WUHU216DAVISVP2,2013-02-12 11:13:00,
2013-02-12 05:14:00,17.6,15.4,29.96,SSE,147,0.0,1.0,91,0.00,,,0.00,WUHU216DAVISVP2,2013-02-12 11:14:00,
2013-02-12 05:15:00,17.6,15.4,29.96,South,179,0.0,1.0,91,0.00,,,0.00,WUHU216DAVISVP2,2013-02-12 11:15:00,
2013-02-12 05:17:00,17.6,15.4,29.96,SE,139,0.0,1.0,91,0.00,,,0.00,WUHU216DAVISVP2,2013-02-12 11:17:00,
2013-02-12 05:18:00,17.6,15.1,29.96,SSE,168,0.0,1.0,90,0.00,,,0.00,WUHU216DAVISVP2,2013-02-12 11:18:00,
2013-02-12 05:19:00,17.6,15.1,29.95,SSE,153,0.0,1.0,90,0.00,,,0.00,WUHU216DAVISVP2,2013-02-12 11:19:00,
2013-02-12 05:20:00,17.6,15.1,29.96,SSE,162,0.0,1.0,90,0.00,,,0.00,WUHU216DAVISVP2,2013-02-12 11:20:00,
2013-02-12 05:22:00,17.6,15.1,29.95,SSE,157,0.0,1.0,90,0.00,,,0.00,WUHU216DAVISVP2,2013-02-12 11:22:00,
2013-02-12 05:23:00,17.6,15.1,29.95,SSE,158,0.0,1.0,90,0.00,,,0.00,WUHU216DAVISVP2,2013-02-12 11:23:00,
2013-02-12 05:24:00,17.6,15.1,29.96,SSE,157,0.0,1.0,90,0.00,,,0.00,WUHU216DAVISVP2,2013-02-12 11:24:00,
2013-02-12 05:25:00,17.6,15.1,29.95,SSE,147,1.0,1.0,90,0.00,,,0.00,WUHU216DAVISVP2,2013-02-12 11:25:00,
2013-02-12 05:27:00,17.6,15.1,29.95,SSE,158,0.0,1.0,90,0.00,,,0.00,WUHU216DAVISVP2,2013-02-12 11:27:00,
2013-02-12 05:28:00,17.6,15.1,29.95,SE,134,1.0,1.0,90,0.00,,,0.00,WUHU216DAVISVP2,2013-02-12 11:28:00,
2013-02-12 05:29:00,17.7,15.2,29.95,SSE,155,1.0,1.0,90,0.00,,,0.00,WUHU216DAVISVP2,2013-02-12 11:29:00,
2013-02-12 05:30:00,17.7,15.2,29.95,SSE,154,0.0,1.0,90,0.00,,,0.00,WUHU216DAVISVP2,2013-02-12 11:30:00,
2013-02-12 05:32:00,17.7,15.2,29.95,SSE,159,0.0,1.0,90,0.00,,,0.00,WUHU216DAVISVP2,2013-02-12 11:32:00,
2013-02-12 05:33:00,17.7,15.2,29.95,SSE,160,1.0,1.0,90,0.00,,,0.00,WUHU216DAVISVP2,2013-02-12 11:33:00,
2013-02-12 05:34:00,17.7,15.2,29.95,SE,140,1.0,1.0,90,0.00,,,0.00,WUHU216DAVISVP2,2013-02-12 11:34:00,
2013-02-12 05:35:00,17.8,15.4,29.95,SSE,160,0.0,1.0,90,0.00,,,0.00,WUHU216DAVISVP2,2013-02-12 11:35:00,
2013-02-12 05:45:00,17.9,15.4,29.95,South,174,0.0,1.0,90,0.00,,,0.00,WUHU216DAVISVP2,2013-02-12 11:45:00,
2013-02-12 05:50:00,18.0,15.5,29.95,East,91,0.0,1.0,90,0.00,,,0.00,WUHU216DAVISVP2,2013-02-12 11:50:00,
2013-02-12 05:55:00,18.1,15.4,29.95,SSE,161,0.0,1.0,89,0.00,,,0.00,WUHU216DAVISVP2,2013-02-12 11:55:00,
2013-02-12 06:00:00,18.1,15.4,29.95,SSE,158,0.0,1.0,89,0.00,,,0.00,WUHU216DAVISVP2,2013-02-12 12:00:00,
2013-02-12 06:05:00,18.1,15.4,29.95,SSE,150,0.0,1.0,89,0.00,,,0.00,WUHU216DAVISVP2,2013-02-12 12:05:00,
2013-02-12 06:10:00,18.1,15.4,29.95,SSE,151,0.0,1.0,89,0.00,,,0.00,WUHU216DAVISVP2,2013-02-12 12:10:00,
2013-02-12 06:15:00,18.1,15.4,29.95,SSE,151,0.0,1.0,89,0.00,,,0.00,WUHU216DAVISVP2,2013-02-12 12:15:00,
2013-02-12 06:20:00,18.1,15.6,29.95,East,95,0.0,1.0,90,0.00,,,0.00,WUHU216DAVISVP2,2013-02-12 12:20:00,
2013-02-12 06:25:00,18.1,15.4,29.96,South,169,0.0,1.0,89,0.00,,,0.00,WUHU216DAVISVP2,2013-02-12 12:25:00,
2013-02-12 06:30:00,18.1,15.4,29.96,SE,136,0.0,1.0,89,0.00,,,0.00,WUHU216DAVISVP2,2013-02-12 12:30:00,
2013-02-12 06:35:00,18.1,15.4,29.95,SSW,207,0.0,1.0,89,0.00,,,0.00,WUHU216DAVISVP2,2013-02-12 12:35:00,
2013-02-12 06:40:00,18.0,15.3,29.95,SSW,199,0.0,1.0,89,0.00,,,0.00,WUHU216DAVISVP2,2013-02-12 12:40:00,
2013-02-12 06:45:00,17.9,15.4,29.95,SW,224,0.0,0.0,90,0.00,,,0.00,WUHU216DAVISVP2,2013-02-12 12:45:00,
2013-02-12 06:50:00,18.1,15.4,29.96,South,188,0.0,1.0,89,0.00,,,0.00,WUHU216DAVISVP2,2013-02-12 12:50:00,
2013-02-12 06:55:00,18.0,15.3,29.96,SSE,150,0.0,1.0,89,0.00,,,0.00,WUHU216DAVISVP2,2013-02-12 12:55:00,
2013-02-12 07:00:00,18.0,15.3,29.96,ESE,119,0.0,1.0,89,0.00,,,0.00,WUHU216DAVISVP2,2013-02-12 13:00:00,
2013-02-12 07:05:00,17.9,15.2,29.96,SSE,153,0.0,1.0,89,0.00,,,0.00,WUHU216DAVISVP2,2013-02-12 13:05:00,
2013-02-12 07:10:00,18.0,15.5,29.97,SW,221,0.0,1.0,90,0.00,,,0.00,WUHU216DAVISVP2,2013-02-12 13:10:00,
2013-02-12 07:15:00,18.1,15.4,29.97,WSW,239,0.0,1.0,89,0.00,,,0.00,WUHU216DAVISVP2,2013-02-12 13:15:00,
2013-02-12 07:20:00,18.2,15.5,29.97,SW,232,1.0,3.0,89,0.00,,,0.00,WUHU216DAVISVP2,2013-02-12 13:20:00,
2013-02-12 07:25:00,18.4,15.7,29.97,SSW,213,0.0,5.0,89,0.00,,,0.00,WUHU216DAVISVP2,2013-02-12 13:25:00,
2013-02-12 07:30:00,18.4,15.7,29.97,SSE,162,0.0,5.0,89,0.00,,,0.00,WUHU216DAVISVP2,2013-02-12 13:30:00,
2013-02-12 07:35:00,18.4,15.7,29.97,SSW,205,0.0,5.0,89,0.00,,,0.00,WUHU216DAVISVP2,2013-02-12 13:35:00,
2013-02-12 07:40:00,18.5,15.8,29.97,SE,146,0.0,5.0,89,0.00,,,0.00,WUHU216DAVISVP2,2013-02-12 13:40:00,
2013-02-12 07:45:00,18.6,15.9,29.97,SSE,167,0.0,1.0,89,0.00,,,0.00,WUHU216DAVISVP2,2013-02-12 13:45:00,
2013-02-12 07:50:00,18.7,15.7,29.97,SSE,157,0.0,1.0,88,0.00,,,0.00,WUHU216DAVISVP2,2013-02-12 13:50:00,
2013-02-12 07:55:00,18.8,15.8,29.97,South,171,0.0,2.0,88,0.00,,,0.00,WUHU216DAVISVP2,2013-02-12 13:55:00,
2013-02-12 08:00:00,18.8,15.8,29.97,SSW,210,0.0,2.0,88,0.00,,,0.00,WUHU216DAVISVP2,2013-02-12 14:00:00,
2013-02-12 08:05:00,19.0,16.0,29.96,SSW,193,0.0,2.0,88,0.00,,,0.00,WUHU216DAVISVP2,2013-02-12 14:05:00,
2013-02-12 08:10:00,19.1,16.1,29.95,SSE,165,0.0,2.0,88,0.00,,,0.00,WUHU216DAVISVP2,2013-02-12 14:10:00,
2013-02-12 08:15:00,19.3,16.0,29.95,SE,131,0.0,1.0,87,0.00,,,0.00,WUHU216DAVISVP2,2013-02-12 14:15:00,
2013-02-12 08:20:00,19.4,16.1,29.95,South,179,0.0,1.0,87,0.00,,,0.00,WUHU216DAVISVP2,2013-02-12 14:20:00,
2013-02-12 08:25:00,19.6,16.3,29.95,SSE,165,0.0,1.0,87,0.00,,,0.00,WUHU216DAVISVP2,2013-02-12 14:25:00,
2013-02-12 08:30:00,19.8,16.3,29.96,SW,218,0.0,1.0,86,0.00,,,0.00,WUHU216DAVISVP2,2013-02-12 14:30:00,
2013-02-12 08:35:00,20.0,16.5,29.96,SW,230,1.0,3.0,86,0.00,,,0.00,WUHU216DAVISVP2,2013-02-12 14:35:00,
2013-02-12 08:40:00,20.2,16.4,29.96,SW,219,0.0,3.0,85,0.00,,,0.00,WUHU216DAVISVP2,2013-02-12 14:40:00,
2013-02-12 08:45:00,20.5,16.4,29.97,SW,233,3.0,3.0,84,0.00,,,0.00,WUHU216DAVISVP2,2013-02-12 14:45:00,
2013-02-12 08:50:00,20.8,16.7,29.96,SW,221,1.0,4.0,84,0.00,,,0.00,WUHU216DAVISVP2,2013-02-12 14:50:00,
2013-02-12 08:55:00,21.2,16.8,29.96,WSW,245,1.0,7.0,83,0.00,,,0.00,WUHU216DAVISVP2,2013-02-12 14:55:00,
2013-02-12 09:00:00,21.7,17.0,29.96,SW,218,2.0,7.0,82,0.00,,,0.00,WUHU216DAVISVP2,2013-02-12 15:00:00,
2013-02-12 09:05:00,22.2,17.0,29.96,SW,229,4.0,7.0,80,0.00,,,0.00,WUHU216DAVISVP2,2013-02-12 15:05:00,
2013-02-12 09:10:00,22.7,16.9,29.96,WSW,244,2.0,6.0,78,0.00,,,0.00,WUHU216DAVISVP2,2013-02-12 15:10:00,
2013-02-12 09:15:00,23.2,17.1,29.96,SW,219,3.0,6.0,77,0.00,,,0.00,WUHU216DAVISVP2,2013-02-12 15:15:00,
2013-02-12 09:20:00,23.3,17.2,29.95,SW,233,2.0,6.0,77,0.00,,,0.00,WUHU216DAVISVP2,2013-02-12 15:20:00,
2013-02-12 09:25:00,23.5,17.4,29.96,WSW,240,3.0,6.0,77,0.00,,,0.00,WUHU216DAVISVP2,2013-02-12 15:25:00,
2013-02-12 09:30:00,23.7,17.5,29.96,SW,227,1.0,6.0,77,0.00,,,0.00,WUHU216DAVISVP2,2013-02-12 15:30:00,
2013-02-12 09:35:00,23.9,17.4,29.95,SW,233,4.0,6.0,76,0.00,,,0.00,WUHU216DAVISVP2,2013-02-12 15:35:00,
2013-02-12 09:40:00,24.1,17.6,29.95,SW,221,2.0,6.0,76,0.00,,,0.00,WUHU216DAVISVP2,2013-02-12 15:40:00,
2013-02-12 09:45:00,24.2,17.7,29.95,West,262,1.0,6.0,76,0.00,,,0.00,WUHU216DAVISVP2,2013-02-12 15:45:00,
2013-02-12 09:50:00,24.7,18.2,29.95,SW,235,2.0,6.0,76,0.00,,,0.00,WUHU216DAVISVP2,2013-02-12 15:50:00,
2013-02-12 09:55:00,25.0,18.5,29.95,SW,215,1.0,5.0,76,0.00,,,0.00,WUHU216DAVISVP2,2013-02-12 15:55:00,
2013-02-12 10:00:00,25.3,18.5,29.95,WSW,237,2.0,6.0,75,0.00,,,0.00,WUHU216DAVISVP2,2013-02-12 16:00:00,
2013-02-12 10:05:00,25.3,18.5,29.94,WSW,237,3.0,7.0,75,0.00,,,0.00,WUHU216DAVISVP2,2013-02-12 16:05:00,
2013-02-12 10:10:00,25.4,18.6,29.94,SW,226,3.0,7.0,75,0.00,,,0.00,WUHU216DAVISVP2,2013-02-12 16:10:00,
2013-02-12 10:15:00,25.8,19.0,29.94,SW,235,1.0,7.0,75,0.00,,,0.00,WUHU216DAVISVP2,2013-02-12 16:15:00,
2013-02-12 10:20:00,26.0,18.9,29.94,WSW,248,1.0,7.0,74,0.00,,,0.00,WUHU216DAVISVP2,2013-02-12 16:20:00,
2013-02-12 10:25:00,26.0,18.3,29.94,SW,234,3.0,7.0,72,0.00,,,0.00,WUHU216DAVISVP2,2013-02-12 16:25:00,
2013-02-12 10:30:00,26.1,18.6,29.94,WNW,286,2.0,5.0,73,0.00,,,0.00,WUHU216DAVISVP2,2013-02-12 16:30:00,
2013-02-12 10:35:00,26.2,18.8,29.93,WSW,255,3.0,5.0,73,0.00,,,0.00,WUHU216DAVISVP2,2013-02-12 16:35:00,
2013-02-12 10:40:00,26.3,18.9,29.93,SW,228,2.0,5.0,73,0.00,,,0.00,WUHU216DAVISVP2,2013-02-12 16:40:00,
2013-02-12 10:45:00,26.6,18.8,29.93,WSW,237,3.0,5.0,72,0.00,,,0.00,WUHU216DAVISVP2,2013-02-12 16:45:00,
2013-02-12 10:50:00,27.0,19.5,29.93,WNW,297,2.0,5.0,73,0.00,,,0.00,WUHU216DAVISVP2,2013-02-12 16:50:00,
2013-02-12 10:55:00,27.3,19.1,29.93,WSW,251,3.0,5.0,71,0.00,,,0.00,WUHU216DAVISVP2,2013-02-12 16:55:00,
2013-02-12 11:00:00,27.3,19.2,29.93,SW,215,3.0,6.0,71,0.00,,,0.00,WUHU216DAVISVP2,2013-02-12 17:00:00,
2013-02-12 11:05:00,27.6,19.4,29.93,West,264,2.0,6.0,71,0.00,,,0.00,WUHU216DAVISVP2,2013-02-12 17:05:00,
2013-02-12 11:10:00,28.0,19.9,29.93,WNW,284,2.0,6.0,71,0.00,,,0.00,WUHU216DAVISVP2,2013-02-12 17:10:00,
2013-02-12 11:15:00,28.3,19.8,29.94,West,270,2.0,6.0,70,0.00,,,0.00,WUHU216DAVISVP2,2013-02-12 17:15:00,
2013-02-12 11:20:00,28.5,20.3,29.94,WSW,256,2.0,6.0,71,0.00,,,0.00,WUHU216DAVISVP2,2013-02-12 17:20:00,
2013-02-12 11:25:00,28.6,20.1,29.94,WSW,238,1.0,6.0,70,0.00,,,0.00,WUHU216DAVISVP2,2013-02-12 17:25:00,
2013-02-12 11:30:00,28.6,19.8,29.94,WSW,246,2.0,6.0,69,0.00,,,0.00,WUHU216DAVISVP2,2013-02-12 17:30:00,
2013-02-12 11:35:00,29.0,20.2,29.93,WSW,244,3.0,6.0,69,0.00,,,0.00,WUHU216DAVISVP2,2013-02-12 17:35:00,
2013-02-12 11:40:00,29.1,20.3,29.93,WNW,289,2.0,6.0,69,0.00,,,0.00,WUHU216DAVISVP2,2013-02-12 17:40:00,
2013-02-12 11:45:00,29.5,20.2,29.93,WSW,246,1.0,6.0,68,0.00,,,0.00,WUHU216DAVISVP2,2013-02-12 17:45:00,
2013-02-12 11:50:00,29.7,19.8,29.93,WSW,240,3.0,6.0,66,0.00,,,0.00,WUHU216DAVISVP2,2013-02-12 17:50:00,
2013-02-12 11:55:00,29.8,19.2,29.93,WSW,243,2.0,8.0,64,0.00,,,0.00,WUHU216DAVISVP2,2013-02-12 17:55:00,
2013-02-12 12:00:00,29.9,18.9,29.93,SW,229,2.0,8.0,63,0.00,,,0.00,WUHU216DAVISVP2,2013-02-12 18:00:00,
2013-02-12 12:05:00,30.1,19.4,29.93,West,267,3.0,8.0,64,0.00,,,0.00,WUHU216DAVISVP2,2013-02-12 18:05:00,
2013-02-12 12:10:00,30.0,18.9,29.93,SW,229,3.0,8.0,63,0.00,,,0.00,WUHU216DAVISVP2,2013-02-12 18:10:00,
2013-02-12 12:15:00,29.9,19.3,29.93,WNW,293,2.0,6.0,64,0.00,,,0.00,WUHU216DAVISVP2,2013-02-12 18:15:00,
2013-02-12 12:20:00,30.3,19.6,29.92,WSW,243,3.0,6.0,64,0.00,,,0.00,WUHU216DAVISVP2,2013-02-12 18:20:00,
2013-02-12 12:25:00,30.3,20.0,29.92,WSW,250,1.0,6.0,65,0.00,,,0.00,WUHU216DAVISVP2,2013-02-12 18:25:00,
2013-02-12 12:30:00,30.4,19.4,29.92,West,278,3.0,5.0,63,0.00,,,0.00,WUHU216DAVISVP2,2013-02-12 18:30:00,
2013-02-12 12:35:00,30.3,19.2,29.92,WSW,250,2.0,5.0,63,0.00,,,0.00,WUHU216DAVISVP2,2013-02-12 18:35:00,
2013-02-12 12:40:00,30.4,19.4,29.92,WSW,256,2.0,5.0,63,0.00,,,0.00,WUHU216DAVISVP2,2013-02-12 18:40:00,
2013-02-12 12:45:00,30.5,19.8,29.91,NW,304,6.0,7.0,64,0.00,,,0.00,WUHU216DAVISVP2,2013-02-12 18:45:00,
2013-02-12 12:50:00,30.4,19.4,29.91,West,265,2.0,8.0,63,0.00,,,0.00,WUHU216DAVISVP2,2013-02-12 18:50:00,
2013-02-12 12:54:00,30.5,19.4,29.91,West,273,4.0,8.0,63,0.00,,,0.00,WUHU216DAVISVP2,2013-02-12 18:54:00,
2013-02-12 12:59:00,30.6,19.9,29.91,WNW,298,4.0,8.0,64,0.00,,,0.00,WUHU216DAVISVP2,2013-02-12 18:59:00,
2013-02-12 13:04:00,30.5,19.5,29.90,West,276,3.0,7.0,63,0.00,,,0.00,WUHU216DAVISVP2,2013-02-12 19:04:00,
2013-02-12 13:09:00,30.6,19.2,29.90,SW,218,2.0,7.0,62,0.00,,,0.00,WUHU216DAVISVP2,2013-02-12 19:09:00,
2013-02-12 13:14:00,30.8,19.7,29.90,SW,231,2.0,6.0,63,0.00,,,0.00,WUHU216DAVISVP2,2013-02-12 19:14:00,
2013-02-12 13:19:00,30.9,19.8,29.90,WNW,291,2.0,6.0,63,0.00,,,0.00,WUHU216DAVISVP2,2013-02-12 19:19:00,
2013-02-12 13:24:00,31.0,20.3,29.90,WSW,240,4.0,7.0,64,0.00,,,0.00,WUHU216DAVISVP2,2013-02-12 19:24:00,
2013-02-12 13:29:00,31.0,20.2,29.90,West,261,3.0,7.0,64,0.00,,,0.00,WUHU216DAVISVP2,2013-02-12 19:29:00,
2013-02-12 13:34:00,31.2,20.4,29.90,WNW,293,4.0,7.0,64,0.00,,,0.00,WUHU216DAVISVP2,2013-02-12 19:34:00,
2013-02-12 13:39:00,31.1,20.0,29.90,NW,324,2.0,9.0,63,0.00,,,0.00,WUHU216DAVISVP2,2013-02-12 19:39:00,
2013-02-12 13:44:00,31.4,21.1,29.90,WSW,246,0.0,9.0,65,0.00,,,0.00,WUHU216DAVISVP2,2013-02-12 19:44:00,
2013-02-12 13:49:00,31.6,20.5,29.89,SSW,209,2.0,9.0,63,0.00,,,0.00,WUHU216DAVISVP2,2013-02-12 19:49:00,
2013-02-12 13:54:00,31.8,21.1,29.89,WSW,239,2.0,5.0,64,0.00,,,0.00,WUHU216DAVISVP2,2013-02-12 19:54:00,
2013-02-12 13:59:00,31.8,21.1,29.89,SW,214,1.0,5.0,64,0.00,,,0.00,WUHU216DAVISVP2,2013-02-12 19:59:00,
2013-02-12 14:04:00,31.8,21.1,29.90,WSW,242,3.0,7.0,64,0.00,,,0.00,WUHU216DAVISVP2,2013-02-12 20:04:00,
2013-02-12 14:09:00,31.6,21.2,29.90,South,190,5.0,7.0,65,0.00,,,0.00,WUHU216DAVISVP2,2013-02-12 20:09:00,
2013-02-12 14:14:00,31.3,20.9,29.90,SW,235,3.0,7.0,65,0.00,,,0.00,WUHU216DAVISVP2,2013-02-12 20:14:00,
2013-02-12 14:19:00,31.5,21.5,29.90,West,265,2.0,7.0,66,0.00,,,0.00,WUHU216DAVISVP2,2013-02-12 20:19:00,
2013-02-12 14:24:00,31.6,22.0,29.90,South,180,4.0,7.0,67,0.00,,,0.00,WUHU216DAVISVP2,2013-02-12 20:24:00,
2013-02-12 14:29:00,31.8,22.2,29.90,West,261,2.0,7.0,67,0.00,,,0.00,WUHU216DAVISVP2,2013-02-12 20:29:00,
2013-02-12 14:34:00,31.8,21.8,29.90,West,259,3.0,7.0,66,0.00,,,0.00,WUHU216DAVISVP2,2013-02-12 20:34:00,
2013-02-12 14:39:00,31.8,22.5,29.90,WSW,250,3.0,7.0,68,0.00,,,0.00,WUHU216DAVISVP2,2013-02-12 20:39:00,
2013-02-12 14:44:00,32.0,22.3,29.90,West,274,4.0,6.0,67,0.00,,,0.00,WUHU216DAVISVP2,2013-02-12 20:44:00,
2013-02-12 14:49:00,31.9,22.2,29.90,WSW,258,3.0,6.0,67,0.00,,,0.00,WUHU216DAVISVP2,2013-02-12 20:49:00,
2013-02-12 14:54:00,31.9,21.8,29.90,WSW,257,3.0,11.0,66,0.00,,,0.00,WUHU216DAVISVP2,2013-02-12 20:54:00,
2013-02-12 14:59:00,31.9,22.2,29.90,West,276,2.0,11.0,67,0.00,,,0.00,WUHU216DAVISVP2,2013-02-12 20:59:00,
2013-02-12 15:04:00,32.0,22.3,29.89,WSW,250,4.0,11.0,67,0.00,,,0.00,WUHU216DAVISVP2,2013-02-12 21:04:00,
2013-02-12 15:09:00,32.0,21.9,29.89,WSW,244,4.0,11.0,66,0.00,,,0.00,WUHU216DAVISVP2,2013-02-12 21:09:00,
2013-02-12 15:14:00,32.1,22.1,29.89,West,264,3.0,8.0,66,0.00,,,0.00,WUHU216DAVISVP2,2013-02-12 21:14:00,
2013-02-12 15:19:00,32.2,22.2,29.89,West,264,6.0,8.0,66,0.00,,,0.00,WUHU216DAVISVP2,2013-02-12 21:19:00,
2013-02-12 15:24:00,32.3,22.6,29.89,WSW,246,3.0,8.0,67,0.00,,,0.00,WUHU216DAVISVP2,2013-02-12 21:24:00,
2013-02-12 15:29:00,32.5,22.8,29.89,West,267,5.0,8.0,67,0.00,,,0.00,WUHU216DAVISVP2,2013-02-12 21:29:00,
2013-02-12 15:34:00,32.5,23.2,29.89,NNW,329,3.0,7.0,68,0.00,,,0.00,WUHU216DAVISVP2,2013-02-12 21:34:00,
2013-02-12 15:39:00,32.4,22.7,29.89,WNW,282,5.0,9.0,67,0.00,,,0.00,WUHU216DAVISVP2,2013-02-12 21:39:00,
2013-02-12 15:44:00,32.4,22.7,29.90,SSW,205,4.0,9.0,67,0.00,,,0.00,WUHU216DAVISVP2,2013-02-12 21:44:00,
2013-02-12 15:49:00,32.4,22.7,29.90,WSW,255,5.0,9.0,67,0.00,,,0.00,WUHU216DAVISVP2,2013-02-12 21:49:00,
2013-02-12 15:54:00,32.4,23.1,29.90,NW,312,2.0,8.0,68,0.00,,,0.00,WUHU216DAVISVP2,2013-02-12 21:54:00,
2013-02-12 15:59:00,32.4,23.1,29.90,SW,233,2.0,8.0,68,0.00,,,0.00,WUHU216DAVISVP2,2013-02-12 21:59:00,
2013-02-12 16:04:00,32.5,23.2,29.90,WNW,284,3.0,8.0,68,0.00,,,0.00,WUHU216DAVISVP2,2013-02-12 22:04:00,
2013-02-12 16:09:00,32.3,23.3,29.90,West,279,3.0,10.0,69,0.00,,,0.00,WUHU216DAVISVP2,2013-02-12 22:09:00,
2013-02-12 16:14:00,32.2,23.6,29.90,NW,319,2.0,10.0,70,0.00,,,0.00,WUHU216DAVISVP2,2013-02-12 22:14:00,
2013-02-12 16:19:00,32.0,23.0,29.89,West,273,3.0,10.0,69,0.00,,,0.00,WUHU216DAVISVP2,2013-02-12 22:19:00,
2013-02-12 16:24:00,32.3,24.0,29.89,WNW,283,1.0,10.0,71,0.00,,,0.00,WUHU216DAVISVP2,2013-02-12 22:24:00,
2013-02-12 16:29:00,32.3,23.6,29.89,West,261,2.0,8.0,70,0.00,,,0.00,WUHU216DAVISVP2,2013-02-12 22:29:00,
2013-02-12 16:34:00,32.1,23.1,29.90,NW,305,2.0,8.0,69,0.00,,,0.00,WUHU216DAVISVP2,2013-02-12 22:34:00,
2013-02-12 16:39:00,31.8,23.2,29.90,West,266,2.0,6.0,70,0.00,,,0.00,WUHU216DAVISVP2,2013-02-12 22:39:00,
2013-02-12 16:44:00,31.5,23.2,29.90,WNW,300,1.0,6.0,71,0.00,,,0.00,WUHU216DAVISVP2,2013-02-12 22:44:00,
2013-02-12 16:49:00,31.3,23.0,29.90,WNW,297,4.0,6.0,71,0.00,,,0.00,WUHU216DAVISVP2,2013-02-12 22:49:00,
2013-02-12 16:54:00,31.1,22.8,29.91,NW,304,3.0,7.0,71,0.00,,,0.00,WUHU216DAVISVP2,2013-02-12 22:54:00,
2013-02-12 16:59:00,30.9,22.7,29.90,West,275,2.0,9.0,71,0.00,,,0.00,WUHU216DAVISVP2,2013-02-12 22:59:00,
2013-02-12 17:04:00,30.8,22.9,29.90,WSW,255,1.0,9.0,72,0.00,,,0.00,WUHU216DAVISVP2,2013-02-12 23:04:00,
2013-02-12 17:09:00,30.7,23.1,29.90,WNW,292,1.0,9.0,73,0.00,,,0.00,WUHU216DAVISVP2,2013-02-12 23:09:00,
2013-02-12 17:14:00,30.6,23.0,29.90,NW,305,2.0,9.0,73,0.00,,,0.00,WUHU216DAVISVP2,2013-02-12 23:14:00,
2013-02-12 17:19:00,30.5,22.9,29.90,NW,321,2.0,7.0,73,0.00,,,0.00,WUHU216DAVISVP2,2013-02-12 23:19:00,
2013-02-12 17:24:00,30.2,22.6,29.91,WNW,300,3.0,5.0,73,0.00,,,0.00,WUHU216DAVISVP2,2013-02-12 23:24:00,
2013-02-12 17:29:00,30.1,22.9,29.90,WNW,292,2.0,5.0,74,0.00,,,0.00,WUHU216DAVISVP2,2013-02-12 23:29:00,
2013-02-12 17:34:00,29.9,22.9,29.91,WSW,239,1.0,5.0,75,0.00,,,0.00,WUHU216DAVISVP2,2013-02-12 23:34:00,
2013-02-12 17:39:00,29.8,22.9,29.91,NW,304,0.0,6.0,75,0.00,,,0.00,WUHU216DAVISVP2,2013-02-12 23:39:00,
2013-02-12 17:44:00,29.6,22.7,29.91,NW,306,1.0,6.0,75,0.00,,,0.00,WUHU216DAVISVP2,2013-02-12 23:44:00,
2013-02-12 17:49:00,29.4,22.8,29.91,West,274,1.0,6.0,76,0.00,,,0.00,WUHU216DAVISVP2,2013-02-12 23:49:00,
2013-02-12 17:54:00,29.2,22.6,29.91,WSW,258,1.0,5.0,76,0.00,,,0.00,WUHU216DAVISVP2,2013-02-12 23:54:00,
2013-02-12 17:59:00,29.0,22.7,29.91,WSW,242,0.0,4.0,77,0.00,,,0.00,WUHU216DAVISVP2,2013-02-12 23:59:00,
2013-02-12 18:04:00,28.9,22.6,29.91,NW,306,0.0,4.0,77,0.00,,,0.00,WUHU216DAVISVP2,2013-02-13 00:04:00,
2013-02-12 18:09:00,28.8,22.5,29.91,West,259,1.0,5.0,77,0.00,,,0.00,WUHU216DAVISVP2,2013-02-13 00:09:00,
2013-02-12 18:14:00,28.7,22.7,29.91,WNW,291,1.0,5.0,78,0.00,,,0.00,WUHU216DAVISVP2,2013-02-13 00:14:00,
2013-02-12 18:19:00,28.6,22.6,29.91,WNW,292,2.0,5.0,78,0.00,,,0.00,WUHU216DAVISVP2,2013-02-13 00:19:00,
2013-02-12 18:24:00,28.5,22.5,29.90,NW,305,1.0,3.0,78,0.00,,,0.00,WUHU216DAVISVP2,2013-02-13 00:24:00,
2013-02-12 18:29:00,28.3,22.6,29.90,WNW,298,0.0,5.0,79,0.00,,,0.00,WUHU216DAVISVP2,2013-02-13 00:29:00,
2013-02-12 18:34:00,28.2,22.5,29.90,SW,219,0.0,5.0,79,0.00,,,0.00,WUHU216DAVISVP2,2013-02-13 00:34:00,
2013-02-12 18:39:00,28.2,22.5,29.90,WNW,288,0.0,5.0,79,0.00,,,0.00,WUHU216DAVISVP2,2013-02-13 00:39:00,
2013-02-12 18:44:00,28.0,22.3,29.90,WSW,255,0.0,5.0,79,0.00,,,0.00,WUHU216DAVISVP2,2013-02-13 00:44:00,
2013-02-12 18:49:00,28.0,22.3,29.90,West,260,1.0,4.0,79,0.00,,,0.00,WUHU216DAVISVP2,2013-02-13 00:49:00,
2013-02-12 18:54:00,28.0,22.6,29.90,SW,235,1.0,3.0,80,0.00,,,0.00,WUHU216DAVISVP2,2013-02-13 00:54:00,
2013-02-12 18:59:00,27.9,22.5,29.90,WNW,287,1.0,3.0,80,0.00,,,0.00,WUHU216DAVISVP2,2013-02-13 00:59:00,
2013-02-12 19:04:00,27.8,22.4,29.90,WSW,245,0.0,3.0,80,0.00,,,0.00,WUHU216DAVISVP2,2013-02-13 01:04:00,
2013-02-12 19:09:00,27.8,22.4,29.90,West,271,2.0,3.0,80,0.00,,,0.00,WUHU216DAVISVP2,2013-02-13 01:09:00,
2013-02-12 19:14:00,27.8,22.4,29.90,NW,309,1.0,3.0,80,0.00,,,0.00,WUHU216DAVISVP2,2013-02-13 01:14:00,
2013-02-12 19:19:00,27.7,22.3,29.89,WSW,257,0.0,4.0,80,0.00,,,0.00,WUHU216DAVISVP2,2013-02-13 01:19:00,
2013-02-12 19:24:00,27.6,22.5,29.90,WSW,248,3.0,4.0,81,0.00,,,0.00,WUHU216DAVISVP2,2013-02-13 01:24:00,
2013-02-12 19:29:00,27.6,22.5,29.90,SW,228,0.0,4.0,81,0.00,,,0.00,WUHU216DAVISVP2,2013-02-13 01:29:00,
2013-02-12 19:34:00,27.4,22.3,29.90,WSW,240,0.0,4.0,81,0.00,,,0.00,WUHU216DAVISVP2,2013-02-13 01:34:00,
2013-02-12 19:39:00,27.3,22.2,29.90,WNW,289,1.0,4.0,81,0.00,,,0.00,WUHU216DAVISVP2,2013-02-13 01:39:00,
2013-02-12 19:44:00,27.3,22.5,29.90,WSW,256,0.0,4.0,82,0.00,,,0.00,WUHU216DAVISVP2,2013-02-13 01:44:00,
2013-02-12 19:49:00,27.2,22.4,29.90,WSW,245,0.0,3.0,82,0.00,,,0.00,WUHU216DAVISVP2,2013-02-13 01:49:00,
2013-02-12 19:54:00,27.1,22.3,29.90,WSW,240,0.0,3.0,82,0.00,,,0.00,WUHU216DAVISVP2,2013-02-13 01:54:00,
2013-02-12 19:59:00,27.0,22.2,29.89,WSW,255,0.0,3.0,82,0.00,,,0.00,WUHU216DAVISVP2,2013-02-13 01:59:00,
2013-02-12 20:04:00,27.0,22.2,29.90,WSW,238,0.0,2.0,82,0.00,,,0.00,WUHU216DAVISVP2,2013-02-13 02:04:00,
2013-02-12 20:09:00,26.9,22.4,29.90,WSW,248,1.0,2.0,83,0.00,,,0.00,WUHU216DAVISVP2,2013-02-13 02:09:00,
2013-02-12 20:14:00,26.8,22.3,29.90,SW,215,0.0,2.0,83,0.00,,,0.00,WUHU216DAVISVP2,2013-02-13 02:14:00,
2013-02-12 20:19:00,26.7,22.2,29.89,WSW,247,0.0,2.0,83,0.00,,,0.00,WUHU216DAVISVP2,2013-02-13 02:19:00,
2013-02-12 20:24:00,26.6,22.1,29.89,WSW,240,0.0,2.0,83,0.00,,,0.00,WUHU216DAVISVP2,2013-02-13 02:24:00,
2013-02-12 20:29:00,26.6,22.1,29.89,WNW,302,0.0,2.0,83,0.00,,,0.00,WUHU216DAVISVP2,2013-02-13 02:29:00,
2013-02-12 20:34:00,26.4,22.2,29.89,WSW,252,0.0,1.0,84,0.00,,,0.00,WUHU216DAVISVP2,2013-02-13 02:34:00,
2013-02-12 20:39:00,26.3,22.1,29.89,West,267,0.0,1.0,84,0.00,,,0.00,WUHU216DAVISVP2,2013-02-13 02:39:00,
2013-02-12 20:44:00,26.1,21.9,29.88,SW,229,0.0,1.0,84,0.00,,,0.00,WUHU216DAVISVP2,2013-02-13 02:44:00,
2013-02-12 20:49:00,26.0,22.1,29.88,WSW,243,0.0,1.0,85,0.00,,,0.00,WUHU216DAVISVP2,2013-02-13 02:49:00,
2013-02-12 20:54:00,25.9,22.0,29.88,West,267,0.0,1.0,85,0.00,,,0.00,WUHU216DAVISVP2,2013-02-13 02:54:00,
2013-02-12 20:59:00,25.8,21.9,29.88,WSW,257,0.0,1.0,85,0.00,,,0.00,WUHU216DAVISVP2,2013-02-13 02:59:00,
2013-02-12 21:04:00,25.7,21.8,29.89,WSW,249,0.0,1.0,85,0.00,,,0.00,WUHU216DAVISVP2,2013-02-13 03:04:00,
2013-02-12 21:09:00,25.6,22.0,29.88,SW,219,0.0,1.0,86,0.00,,,0.00,WUHU216DAVISVP2,2013-02-13 03:09:00,
2013-02-12 21:14:00,25.4,21.8,29.88,WNW,283,0.0,1.0,86,0.00,,,0.00,WUHU216DAVISVP2,2013-02-13 03:14:00,
2013-02-12 21:19:00,25.3,21.7,29.89,West,267,0.0,1.0,86,0.00,,,0.00,WUHU216DAVISVP2,2013-02-13 03:19:00,
2013-02-12 21:24:00,25.3,21.7,29.88,NW,304,0.0,1.0,86,0.00,,,0.00,WUHU216DAVISVP2,2013-02-13 03:24:00,
2013-02-12 21:29:00,25.2,21.6,29.88,WNW,302,0.0,1.0,86,0.00,,,0.00,WUHU216DAVISVP2,2013-02-13 03:29:00,
2013-02-12 21:34:00,25.2,21.8,29.88,WNW,303,1.0,3.0,87,0.00,,,0.00,WUHU216DAVISVP2,2013-02-13 03:34:00,
2013-02-12 21:39:00,25.3,22.0,29.88,NNW,340,1.0,4.0,87,0.00,,,0.00,WUHU216DAVISVP2,2013-02-13 03:39:00,
2013-02-12 21:44:00,25.3,21.7,29.88,WNW,291,0.0,4.0,86,0.00,,,0.00,WUHU216DAVISVP2,2013-02-13 03:44:00,
2013-02-12 21:49:00,25.4,21.8,29.88,WNW,291,1.0,4.0,86,0.00,,,0.00,WUHU216DAVISVP2,2013-02-13 03:49:00,
2013-02-12 21:54:00,25.4,21.8,29.88,NW,321,1.0,4.0,86,0.00,,,0.00,WUHU216DAVISVP2,2013-02-13 03:54:00,
2013-02-12 21:59:00,25.5,21.9,29.88,WNW,301,1.0,4.0,86,0.00,,,0.00,WUHU216DAVISVP2,2013-02-13 03:59:00,
2013-02-12 22:04:00,25.5,21.9,29.88,NW,316,1.0,4.0,86,0.00,,,0.00,WUHU216DAVISVP2,2013-02-13 04:04:00,
2013-02-12 22:09:00,25.4,21.8,29.88,NW,306,1.0,4.0,86,0.00,,,0.00,WUHU216DAVISVP2,2013-02-13 04:09:00,
2013-02-12 22:14:00,25.3,21.7,29.88,NW,304,0.0,4.0,86,0.00,,,0.00,WUHU216DAVISVP2,2013-02-13 04:14:00,
2013-02-12 22:19:00,25.1,21.5,29.88,NW,304,1.0,4.0,86,0.00,,,0.00,WUHU216DAVISVP2,2013-02-13 04:19:00,
2013-02-12 22:24:00,25.0,21.6,29.88,NW,316,1.0,4.0,87,0.00,,,0.00,WUHU216DAVISVP2,2013-02-13 04:24:00,
2013-02-12 22:29:00,25.0,21.6,29.88,NW,319,1.0,4.0,87,0.00,,,0.00,WUHU216DAVISVP2,2013-02-13 04:29:00,
2013-02-12 22:34:00,25.0,21.6,29.88,WNW,293,1.0,4.0,87,0.00,,,0.00,WUHU216DAVISVP2,2013-02-13 04:34:00,
2013-02-12 22:39:00,24.9,21.5,29.88,NW,318,0.0,4.0,87,0.00,,,0.00,WUHU216DAVISVP2,2013-02-13 04:39:00,
2013-02-12 22:44:00,24.8,21.4,29.88,WNW,300,0.0,4.0,87,0.00,,,0.00,WUHU216DAVISVP2,2013-02-13 04:44:00,
2013-02-12 22:49:00,25.0,21.7,29.88,WNW,297,1.0,3.0,87,0.00,,,0.00,WUHU216DAVISVP2,2013-02-13 04:49:00,
2013-02-12 22:54:00,25.0,21.6,29.87,NW,305,1.0,3.0,87,0.00,,,0.00,WUHU216DAVISVP2,2013-02-13 04:54:00,
2013-02-12 22:59:00,24.8,21.4,29.87,WNW,288,0.0,3.0,87,0.00,,,0.00,WUHU216DAVISVP2,2013-02-13 04:59:00,
2013-02-12 23:00:00,24.8,21.4,29.87,WNW,288,0.0,3.0,87,0.00,,,0.00,WUHU216DAVISVP2,2013-02-13 05:00:00,
2013-02-12 23:05:00,25.0,21.7,29.86,West,271,0.0,3.0,87,0.00,,,0.00,WUHU216DAVISVP2,2013-02-13 05:05:00,
2013-02-12 23:10:00,25.0,21.6,29.86,WNW,302,0.0,2.0,87,0.00,,,0.00,WUHU216DAVISVP2,2013-02-13 05:10:00,
2013-02-12 23:15:00,25.0,21.6,29.86,WNW,290,1.0,2.0,87,0.00,,,0.00,WUHU216DAVISVP2,2013-02-13 05:15:00,
2013-02-12 23:20:00,24.9,21.5,29.86,NW,321,0.0,2.0,87,0.00,,,0.00,WUHU216DAVISVP2,2013-02-13 05:20:00,
2013-02-12 23:25:00,24.8,21.4,29.86,NW,309,1.0,2.0,87,0.00,,,0.00,WUHU216DAVISVP2,2013-02-13 05:25:00,
2013-02-12 23:30:00,24.8,21.5,29.87,NW,316,0.0,2.0,87,0.00,,,0.00,WUHU216DAVISVP2,2013-02-13 05:30:00,
2013-02-12 23:35:00,24.7,21.4,29.87,WNW,282,0.0,2.0,87,0.00,,,0.00,WUHU216DAVISVP2,2013-02-13 05:35:00,
2013-02-12 23:40:00,24.6,21.3,29.87,WNW,297,0.0,2.0,87,0.00,,,0.00,WUHU216DAVISVP2,2013-02-13 05:40:00,
2013-02-12 23:45:00,24.5,21.4,29.87,SW,227,1.0,2.0,88,0.00,,,0.00,WUHU216DAVISVP2,2013-02-13 05:45:00,
2013-02-12 23:50:00,24.5,21.5,29.87,WNW,299,0.0,3.0,88,0.00,,,0.00,WUHU216DAVISVP2,2013-02-13 05:50:00,
2013-02-12 23:55:00,24.6,21.5,29.87,NW,316,1.0,3.0,88,0.00,,,0.00,WUHU216DAVISVP2,2013-02-13 05:55:00,